Location: Cahas Mountain Overlook
(37.0833°N, 80.1000°W)
Time: 04:33:08
(UTC-04:00)

CUTE 1.7 + AOD 2 - Visible Passes

Search period start: 21 July 2024 00:00
Search period end: 31 July 2024 00:00
Orbit: 568 x 583 km, 97.8° (Epoch: 21 July)

Date Brightness Start Highest point End Pass type
(mag) Time Alt. Az. Time Alt. Az. Time Alt. Az.
21 Jul ? 03:57:47 10° NE 04:00:30 17° E 04:03:11 10° SE visible
21 Jul ? 05:32:08 10° N 05:35:45 31° WNW 05:39:21 10° SW visible
22 Jul ? 04:01:08 10° NE 04:04:03 19° E 04:06:56 10° SE visible
22 Jul ? 05:35:45 10° NNW 05:39:15 28° WNW 05:42:45 10° SW visible
23 Jul ? 04:04:30 10° NE 04:07:35 21° E 04:10:26 11° SE visible
23 Jul ? 05:39:20 10° NNW 05:42:45 26° WNW 05:46:07 10° SW visible
24 Jul ? 04:07:52 10° NE 04:11:06 23° E 04:13:55 12° SE visible
24 Jul ? 05:42:56 10° NNW 05:46:13 24° WNW 05:49:29 10° SW visible
25 Jul ? 04:11:14 10° NE 04:14:36 25° E 04:17:23 13° SSE visible
25 Jul ? 05:46:32 10° NNW 05:49:41 22° WNW 05:52:48 10° WSW visible
26 Jul ? 04:14:36 10° NE 04:18:05 27° E 04:20:50 14° SSE visible
26 Jul ? 05:50:07 10° NNW 05:53:07 20° WNW 05:56:05 10° WSW visible
27 Jul ? 04:17:58 10° NE 04:21:33 30° E 04:24:16 15° SSE visible
28 Jul ? 04:21:19 10° NNE 04:25:00 33° E 04:27:41 16° SSE visible
29 Jul ? 04:24:40 10° NNE 04:28:26 36° E 04:31:05 17° SSE visible
30 Jul ? 04:28:01 10° NNE 04:31:51 39° E 04:34:29 18° SSE visible
